Vertical_Velocity
-3 -3 -3 -3 -3 -3 -3 -3 -3 -3 -3 -3 -3 -3 -4 -4 -4 -4 -5 -5 -5 -5 -6 -6 -6 -6 -6 -6 -6 -6 -6 -5 -5 -5 -5 -5 -5 -5 -4 -4 -2 -1 0 2 5 7 7 1 -0 1 3 3 2 1 0 0 -0 -1 -1 -0 -0 -0 -1 -0 0 0 -0 -1 -1 -2 -2 0 2 2 2 1 0 -0 -0 -0 -1 -1 -1 -1 -0 1 0 1 1 2 2 1 2 2 4 4 4 4 4 5 3 0 -0
-2 -2 -2 -2 -2 -2 -2 -2 -2 -2 -2 -2 -3 -3 -3 -3 -4 -4 -4 -4 -5 -5 -5 -5 -5 -6 -6 -6 -6 -6 -6 -6 -5 -5 -5 -5 -6 -6 -5 -5 -4 -3 -3 -3 -1 3 8 6 4 1 3 4 3 2 1 0 -0 -1 -1 0 0 -0 -1 -0 -0 -0 -1 -1 -1 -1 -1 0 1 2 2 1 0 -0 0 0 -0 -1 -1 -0 0 0 0 1 1 0 0 -0 -1 -0 1 2 3 4 4 4 4 3 1
-2 -2 -1 -1 -1 -1 -2 -2 -2 -2 -2 -2 -2 -2 -2 -3 -3 -3 -4 -4 -4 -5 -5 -5 -5 -6 -6 -6 -6 -6 -5 -6 -6 -6 -6 -5 -6 -6 -6 -5 -5 -4 -4 -5 -4 -3 1 6 7 5 3 4 4 3 1 0 -0 -1 -1 0 0 0 -0 -0 -0 -0 -1 -0 -0 0 -0 0 1 1 1 1 0 -0 0 1 0 0 0 1 1 1 1 -0 -1 -1 -2 -1 -1 0 1 1 2 3 6 4 4 5 4
-2 -2 -2 -1 -1 -1 -1 -2 -2 -1 -1 -1 -1 -2 -2 -2 -2 -2 -3 -3 -3 -4 -4 -5 -5 -5 -6 -6 -6 -6 -5 -5 -6 -6 -6 -5 -5 -6 -5 -5 -5 -5 -5 -6 -6 -5 -5 -1 4 7 5 5 6 6 4 2 0 -0 -0 0 0 1 0 0 -0 -1 -1 -0 -0 0 0 1 1 1 1 0 -0 -0 0 1 1 1 1 2 2 2 1 -1 -2 -2 -2 -1 -0 1 1 2 2 3 4 5 5 4 6
-3 -3 -2 -2 -2 -2 -2 -2 -2 -2 -2 -2 -2 -2 -2 -2 -2 -2 -2 -2 -2 -3 -3 -4 -4 -5 -6 -6 -6 -6 -6 -6 -6 -6 -6 -5 -5 -5 -5 -5 -5 -6 -6 -6 -6 -6 -6 -6 -1 4 6 4 5 6 7 5 2 0 -0 0 0 1 1 1 0 -1 -1 -1 -0 0 1 1 1 0 0 -0 -0 -0 -0 0 1 1 2 3 3 3 1 -1 -2 -3 -2 -1 0 1 1 1 2 2 3 4 4 4 5
-3 -3 -3 -3 -3 -3 -3 -3 -3 -3 -3 -2 -2 -2 -2 -2 -2 -2 -2 -2 -2 -2 -2 -3 -3 -4 -4 -5 -5 -6 -6 -6 -6 -6 -6 -6 -5 -5 -5 -5 -5 -6 -6 -6 -6 -6 -6 -7 -4 0 4 2 2 4 8 8 5 2 1 1 0 0 1 1 0 -0 -1 -1 -1 -0 1 1 1 0 -0 -0 -1 -1 -1 -0 1 2 4 4 4 3 1 -1 -2 -2 -2 -1 0 1 1 1 2 2 3 3 3 4 3
-4 -4 -4 -4 -3 -3 -3 -3 -3 -3 -3 -3 -3 -3 -3 -2 -2 -2 -2 -2 -2 -2 -2 -2 -3 -3 -3 -4 -4 -5 -5 -6 -6 -6 -6 -6 -6 -5 -5 -5 -6 -6 -6 -6 -6 -6 -6 -7 -5 -2 1 -0 -1 0 3 7 7 6 4 2 1 0 1 1 1 0 -0 -1 -1 -0 0 0 0 0 -0 -1 -1 -0 -0 0 1 3 4 4 2 0 -1 -1 -2 -2 -2 -1 -0 1 2 1 2 2 2 2 2 2 2
-4 -4 -4 -4 -4 -4 -4 -4 -4 -4 -4 -4 -4 -3 -3 -3 -3 -3 -3 -2 -2 -2 -2 -2 -2 -2 -2 -3 -3 -4 -4 -5 -5 -6 -6 -6 -6 -6 -6 -6 -6 -6 -6 -7 -7 -6 -6 -7 -4 -1 -1 -3 -3 -2 -1 2 6 8 8 5 3 2 2 1 1 0 -0 -1 -1 -0 -0 -0 -0 -0 -1 -1 -0 0 1 1 2 2 3 1 0 -0 -1 -1 -1 -1 -2 -1 0 1 2 2 2 1 2 2 2 3 3
-4 -5 -5 -5 -5 -5 -5 -5 -5 -5 -5 -5 -5 -5 -4 -4 -4 -4 -4 -3 -3 -3 -3 -3 -2 -2 -2 -2 -3 -3 -3 -4 -4 -4 -5 -5 -6 -6 -6 -6 -6 -7 -7 -7 -7 -7 -6 -6 -3 -1 -3 -6 -5 -4 -2 -1 2 6 8 8 6 4 3 1 0 -0 -0 -0 -0 -0 -1 -1 -1 -1 -1 -0 0 1 2 2 2 1 0 -0 0 1 1 0 -0 -0 -0 -0 0 1 2 2 2 1 1 1 2 3 4
-5 -5 -5 -5 -5 -6 -6 -6 -6 -6 -6 -6 -6 -6 -6 -6 -6 -6 -6 -6 -5 -5 -5 -4 -4 -3 -3 -3 -3 -3 -3 -3 -3 -3 -3 -4 -4 -5 -6 -6 -7 -7 -7 -7 -7 -7 -7 -4 -2 -1 -4 -6 -7 -5 -4 -3 -0 3 6 7 8 7 6 2 0 -0 -0 -0 0 -0 -1 -1 -1 -1 -1 0 1 1 2 1 1 0 -0 -1 0 1 2 1 0 1 0 0 1 2 3 3 2 1 1 1 2 3 3
-5 -5 -5 -5 -5 -5 -6 -6 -6 -6 -7 -7 -7 -7 -7 -7 -8 -8 -8 -8 -8 -8 -7 -7 -6 -6 -5 -5 -4 -3 -3 -3 -3 -2 -2 -3 -4 -4 -5 -5 -6 -6 -7 -8 -8 -8 -6 -2 -2 -3 -5 -6 -6 -6 -6 -5 -2 2 4 5 6 7 7 5 2 0 -1 -0 0 0 -1 -1 -1 -1 -0 0 1 1 1 1 0 -0 -1 -1 -0 1 1 1 1 2 2 2 2 2 3 3 2 2 1 1 2 2 2
-5 -5 -5 -5 -5 -5 -5 -6 -6 -6 -7 -7 -7 -7 -7 -8 -8 -8 -8 -8 -9 -9 -9 -9 -8 -8 -8 -7 -6 -6 -5 -4 -3 -2 -2 -3 -3 -4 -4 -4 -5 -6 -6 -8 -8 -7 -4 -2 -3 -5 -5 -6 -6 -6 -7 -6 -3 0 4 4 4 4 5 6 5 3 0 0 0 -0 -1 -1 -1 -1 -0 0 0 0 1 0 -0 -1 -1 -0 -0 -0 -0 1 2 3 3 3 2 2 2 2 2 2 2 2 1 1 0
-4 -5 -5 -5 -5 -5 -5 -6 -6 -6 -7 -7 -7 -7 -7 -7 -7 -7 -7 -8 -8 -8 -8 -8 -9 -9 -9 -8 -8 -8 -7 -6 -4 -3 -3 -3 -3 -3 -4 -4 -5 -5 -6 -7 -7 -4 -2 -3 -5 -6 -5 -6 -5 -5 -6 -6 -4 -2 2 3 3 3 2 4 5 5 3 1 0 -1 -1 -1 -1 -1 -0 0 0 0 0 0 -0 -0 0 0 -0 -0 -0 1 2 3 3 3 3 2 2 2 2 2 2 2 1 -0 -1
-4 -4 -5 -6 -6 -6 -6 -6 -7 -7 -7 -7 -7 -6 -6 -6 -6 -6 -6 -6 -6 -6 -7 -7 -7 -8 -8 -8 -8 -8 -8 -7 -6 -5 -4 -4 -3 -3 -4 -4 -4 -5 -6 -6 -5 -3 -2 -4 -5 -6 -5 -5 -5 -5 -5 -6 -6 -4 -0 2 4 3 1 1 3 5 6 3 1 -0 -1 -1 -1 -0 0 0 0 0 -0 0 0 0 0 -0 -0 -0 0 1 2 3 3 3 3 3 2 2 2 2 2 1 0 -1 -1
-4 -4 -5 -6 -6 -7 -7 -7 -7 -7 -7 -7 -6 -6 -6 -6 -6 -6 -6 -6 -6 -5 -5 -6 -6 -6 -6 -6 -7 -8 -8 -7 -6 -6 -5 -5 -4 -4 -4 -4 -4 -5 -6 -5 -4 -3 -4 -4 -4 -4 -5 -4 -5 -5 -5 -6 -6 -4 -2 1 3 3 1 -0 1 3 5 5 3 1 -1 -1 -1 -0 0 0 0 -0 0 0 0 0 0 0 0 0 0 1 1 2 2 3 3 3 3 3 2 1 1 1 -0 -1 -1
-4 -5 -5 -6 -6 -6 -6 -6 -6 -6 -6 -6 -6 -6 -6 -6 -6 -6 -6 -6 -6 -5 -5 -5 -5 -5 -5 -5 -6 -6 -6 -6 -6 -5 -5 -5 -5 -4 -4 -4 -4 -4 -5 -4 -4 -4 -4 -4 -4 -3 -4 -4 -5 -5 -5 -6 -6 -4 -2 0 2 3 2 0 -0 0 2 4 4 3 1 -0 -0 -0 0 0 0 0 0 0 -0 -0 0 0 1 1 1 1 1 1 2 3 3 3 2 2 1 1 1 1 0 -0 0
-5 -6 -6 -5 -5 -5 -4 -4 -4 -4 -5 -5 -5 -5 -5 -5 -6 -6 -6 -5 -5 -5 -5 -5 -5 -5 -4 -4 -5 -6 -6 -5 -5 -4 -4 -4 -4 -5 -5 -5 -4 -4 -4 -4 -4 -4 -4 -4 -4 -3 -3 -3 -4 -4 -5 -6 -5 -4 -2 -1 1 2 2 0 -1 -1 -0 2 3 4 4 2 0 -0 -0 0 0 0 -0 -0 -0 0 1 1 1 1 1 1 1 1 1 2 2 2 2 2 2 2 2 2 1 1 1
-5 -5 -5 -4 -4 -4 -4 -3 -3 -3 -3 -4 -4 -3 -3 -3 -4 -4 -4 -4 -4 -4 -5 -5 -6 -6 -5 -5 -5 -6 -6 -5 -5 -4 -4 -4 -4 -4 -4 -5 -4 -4 -4 -4 -4 -4 -3 -3 -4 -4 -3 -3 -3 -3 -4 -5 -4 -3 -1 -1 -1 0 0 0 -1 -1 -1 0 2 3 4 4 2 0 -0 -0 -0 -0 -0 0 1 1 1 0 0 0 0 0 0 0 0 0 1 1 2 3 3 3 3 2 2 2 2
-3 -3 -3 -3 -3 -3 -3 -3 -2 -2 -2 -2 -2 -1 -1 -0 -1 -1 -2 -1 -2 -2 -3 -4 -5 -5 -5 -5 -6 -6 -6 -6 -5 -5 -5 -5 -4 -3 -3 -4 -4 -4 -4 -4 -4 -3 -3 -3 -3 -3 -3 -3 -2 -2 -4 -5 -3 -1 -0 -1 -1 -1 -1 -1 -0 -0 -0 -0 1 2 3 4 3 2 -0 -1 -1 -1 0 1 2 2 1 1 0 0 0 -0 -0 0 -0 -0 0 1 3 4 4 4 3 3 2 2 2
-2 -1 -1 -1 -1 -1 -1 -2 -1 -1 -0 -1 -0 0 1 1 1 1 1 1 1 1 -1 -2 -3 -3 -4 -4 -5 -6 -6 -6 -6 -6 -6 -6 -5 -4 -4 -4 -4 -4 -4 -4 -4 -4 -4 -3 -3 -3 -2 -3 -2 -2 -4 -4 -2 -0 0 -0 -1 -2 -2 -2 -0 1 1 0 -0 0 1 2 3 2 1 -1 -1 -0 1 2 2 2 1 1 1 0 -0 0 0 0 0 0 1 2 3 4 4 4 3 3 3 2 2
-1 -1 -1 -1 -1 -0 -1 -1 -1 -1 0 -0 -1 -1 0 -1 -0 0 0 -1 0 2 1 -0 -1 -1 -2 -3 -4 -5 -5 -5 -6 -7 -6 -7 -7 -5 -4 -5 -5 -5 -5 -4 -4 -5 -4 -3 -3 -3 -2 -2 -2 -3 -4 -3 -1 0 0 -0 -1 -2 -3 -2 0 2 2 0 -0 -0 0 1 2 2 2 1 0 0 1 2 2 2 1 1 1 0 0 0 0 0 1 1 1 1 2 3 3 3 3 3 3 3 2
-2 -2 -2 -2 -2 -1 -2 -1 -2 -2 -2 -2 -3 -4 -2 -4 -4 -4 -2 -5 -4 -3 -0 -2 -1 -1 -1 -3 -4 -3 -3 -5 -7 -7 -5 -6 -7 -7 -6 -6 -6 -6 -6 -4 -4 -5 -4 -3 -3 -3 -2 -1 -2 -3 -4 -2 -1 1 0 -0 -1 -2 -3 -2 0 3 3 0 -1 -1 -0 0 0 1 2 2 2 1 0 1 1 1 1 1 1 1 1 0 0 0 -0 -0 -0 0 1 2 2 3 3 3 4 4 3
-3 -3 -3 -3 -3 -3 -3 -3 -2 -3 -4 -4 -5 -6 -4 -6 -7 -8 -5 -6 -8 -8 -5 -5 -4 -3 -2 -4 -4 -3 -3 -4 -6 -6 -7 -6 -6 -7 -7 -6 -6 -7 -7 -5 -5 -5 -4 -3 -3 -3 -2 -1 -2 -3 -4 -2 -0 1 0 -0 -1 -1 -2 -2 0 3 3 0 -1 -1 -1 -0 0 0 1 2 2 2 1 1 1 2 2 1 1 1 0 0 0 -0 -1 -1 -0 -0 1 1 2 3 4 4 5 5 5
-3 -3 -2 -3 -3 -3 -4 -4 -4 -3 -4 -5 -6 -6 -5 -5 -8 -9 -6 -6 -8 -9 -8 -7 -7 -7 -6 -5 -4 -3 -4 -4 -4 -4 -6 -7 -6 -5 -6 -6 -6 -7 -8 -7 -6 -6 -5 -4 -3 -3 -3 -2 -2 -3 -4 -2 0 1 0 -0 -0 -1 -1 -1 0 2 3 1 -0 -1 -1 -0 0 0 0 1 1 2 2 1 2 2 2 1 1 0 1 1 1 0 -0 -0 -0 0 1 2 3 4 6 5 4 4 4
-3 -3 -3 -4 -4 -4 -4 -6 -6 -5 -4 -5 -6 -7 -6 -4 -6 -9 -8 -6 -6 -8 -10 -8 -8 -8 -8 -8 -5 -3 -4 -5 -3 -2 -3 -6 -6 -5 -4 -5 -5 -5 -6 -7 -7 -6 -6 -5 -4 -4 -4 -2 -2 -3 -4 -1 0 0 -0 0 0 0 -1 -1 0 2 3 2 0 -0 -0 -0 -0 0 1 0 0 1 2 2 1 1 1 1 0 0 1 1 1 1 0 -0 -0 0 1 1 3 4 5 3 2 2 2
-3 -4 -4 -4 -5 -5 -5 -6 -6 -6 -5 -5 -6 -8 -7 -4 -4 -6 -10 -7 -5 -6 -9 -7 -7 -7 -8 -8 -7 -6 -4 -5 -5 -3 -1 -4 -5 -5 -4 -3 -4 -4 -4 -6 -6 -6 -7 -6 -5 -4 -4 -3 -3 -3 -4 -2 -0 0 -0 0 0 0 -1 -1 0 2 4 2 1 -0 -0 -0 -0 0 1 0 0 0 1 1 1 1 1 1 1 1 2 2 1 1 0 0 -0 -1 -1 -0 1 2 2 1 1 1 2
-4 -4 -4 -5 -6 -6 -6 -6 -7 -6 -5 -5 -6 -7 -8 -8 -4 -2 -6 -9 -7 -5 -7 -7 -7 -6 -7 -7 -7 -7 -5 -6 -6 -5 -2 -4 -4 -5 -5 -3 -3 -2 -3 -4 -4 -5 -6 -7 -6 -6 -5 -4 -4 -4 -4 -2 -1 -1 -0 0 0 0 -1 -1 0 2 4 3 1 0 0 -0 -0 0 1 1 0 -0 -0 1 2 2 1 2 2 2 2 1 1 0 0 -0 -1 -1 -2 -1 0 1 2 2 2 2 2
-4 -5 -5 -5 -6 -6 -6 -6 -7 -8 -7 -6 -6 -6 -6 -10 -9 -5 -2 -7 -8 -7 -6 -8 -7 -6 -7 -7 -7 -7 -7 -7 -8 -7 -3 -5 -5 -5 -5 -5 -3 -2 -2 -2 -3 -4 -4 -5 -6 -6 -6 -5 -5 -5 -4 -4 -3 -2 -1 -0 0 -0 -1 -1 0 2 4 3 2 1 0 0 0 0 0 0 0 0 -0 0 1 1 1 2 2 2 2 1 0 -0 -0 -1 -1 -1 -2 -1 0 1 2 2 3 3 3
-4 -5 -6 -5 -6 -7 -7 -6 -6 -7 -8 -8 -7 -6 -4 -8 -9 -8 -5 -6 -6 -7 -6 -7 -7 -7 -7 -7 -7 -7 -7 -8 -9 -9 -4 -6 -6 -6 -5 -6 -5 -3 -3 -3 -3 -2 -2 -2 -4 -5 -6 -6 -6 -6 -6 -6 -4 -3 -1 -0 -0 -1 -1 -1 0 2 5 4 2 1 1 1 0 0 0 0 1 1 1 -0 -1 -0 1 1 2 1 1 1 0 0 -0 -1 -1 -2 -2 -1 -0 1 2 3 3 3 2
-5 -4 -6 -6 -6 -6 -8 -7 -6 -5 -7 -8 -8 -7 -6 -8 -8 -8 -6 -8 -8 -6 -7 -7 -7 -6 -7 -7 -7 -7 -6 -8 -10 -10 -6 -7 -7 -7 -5 -7 -6 -4 -4 -5 -3 -1 -1 -2 -2 -3 -4 -5 -5 -5 -6 -7 -6 -4 -2 -1 -1 -1 -2 -1 1 3 5 3 2 1 2 1 1 0 0 1 1 2 2 0 -1 -2 -0 1 1 0 0 1 1 0 0 -0 -1 -1 -2 -1 -1 0 1 2 3 3 3
-6 -6 -5 -6 -6 -5 -6 -8 -8 -6 -6 -8 -8 -7 -6 -8 -9 -8 -5 -8 -9 -9 -8 -10 -10 -9 -8 -8 -7 -6 -6 -8 -9 -9 -8 -8 -8 -7 -5 -7 -8 -7 -5 -6 -4 -3 -1 -3 -2 -1 -1 -2 -4 -4 -6 -6 -6 -5 -3 -2 -1 -2 -2 -0 2 4 5 2 1 1 2 2 1 0 0 1 1 2 2 1 -1 -2 -2 -1 -0 -0 0 1 1 0 -0 -0 -0 -1 -1 -1 -1 -0 1 2 3 4 3
-5 -6 -6 -7 -7 -6 -4 -5 -7 -7 -7 -7 -7 -7 -6 -6 -8 -8 -7 -7 -8 -10 -9 -10 -11 -11 -10 -10 -8 -6 -6 -7 -8 -9 -8 -8 -9 -8 -5 -7 -8 -8 -5 -6 -6 -5 -2 -4 -3 -0 2 -0 -2 -3 -4 -5 -6 -6 -4 -2 -1 -1 -1 1 4 5 3 1 0 1 2 2 1 1 1 1 2 2 2 1 -0 -2 -4 -3 -2 -1 0 0 0 -0 -1 -0 -0 0 1 0 -0 0 2 3 4 4 4
-6 -6 -6 -7 -8 -8 -7 -6 -5 -6 -7 -7 -8 -8 -7 -7 -7 -8 -8 -7 -7 -8 -9 -9 -9 -10 -10 -11 -9 -7 -7 -7 -7 -8 -9 -7 -8 -8 -7 -8 -8 -8 -6 -8 -8 -6 -3 -5 -5 -2 3 0 -1 -2 -1 -4 -5 -5 -4 -2 -1 0 1 3 4 4 1 -0 -0 1 2 1 1 2 2 2 2 2 2 1 -0 -2 -3 -4 -3 -2 -1 -1 -0 0 0 0 1 1 1 1 1 1 1 2 2 2 2
-7 -7 -6 -6 -6 -7 -9 -8 -7 -5 -5 -7 -8 -8 -8 -8 -8 -7 -7 -7 -6 -6 -7 -8 -8 -8 -8 -10 -9 -7 -6 -6 -6 -7 -9 -7 -7 -7 -8 -8 -8 -7 -7 -9 -8 -7 -5 -7 -6 -3 2 -1 -1 -1 1 -3 -4 -5 -4 -3 -1 0 2 4 4 3 -0 -1 -1 1 2 1 2 2 2 2 2 1 1 0 -0 -1 -2 -3 -3 -3 -2 -2 -0 1 1 1 2 2 2 2 2 1 0 0 1 1 1
-6 -7 -8 -6 -6 -6 -6 -8 -8 -7 -5 -6 -8 -8 -8 -8 -8 -7 -7 -7 -7 -6 -5 -6 -7 -7 -7 -8 -8 -7 -6 -6 -6 -6 -6 -8 -7 -6 -8 -8 -7 -7 -10 -9 -7 -7 -7 -8 -7 -4 -2 -3 -3 -0 2 -1 -3 -4 -3 -3 -1 1 2 3 3 2 -1 -1 -0 1 1 1 2 2 2 1 1 1 0 0 0 0 0 -1 -3 -4 -4 -3 -1 0 1 2 2 2 2 1 1 -0 -1 -1 -0 0 1
-6 -5 -8 -8 -7 -6 -5 -6 -7 -8 -7 -6 -7 -8 -8 -8 -8 -8 -7 -8 -8 -8 -7 -7 -7 -7 -8 -9 -9 -8 -8 -8 -7 -6 -5 -7 -7 -6 -8 -7 -6 -6 -10 -8 -7 -7 -9 -8 -6 -5 -5 -5 -3 -1 1 -0 -2 -2 -1 -1 1 2 3 3 2 1 -0 -1 -1 -0 0 2 2 2 1 1 1 0 0 1 1 1 1 -0 -2 -4 -5 -4 -2 -1 1 2 2 2 1 0 -0 -1 -2 -1 -1 -0 0
-6 -5 -6 -7 -8 -7 -7 -6 -6 -7 -7 -7 -7 -8 -9 -8 -8 -9 -8 -8 -8 -9 -8 -8 -8 -8 -8 -9 -10 -10 -9 -10 -10 -10 -8 -8 -8 -7 -7 -7 -7 -7 -9 -7 -7 -9 -12 -8 -6 -5 -7 -5 -4 -3 -2 -2 -2 -1 1 1 2 2 3 3 2 1 0 -1 -1 -1 -0 3 3 2 1 1 0 0 -0 1 1 1 1 -0 -2 -3 -5 -5 -3 -1 0 1 1 1 -0 -1 -1 -1 -1 -1 -0 0 1
-6 -6 -4 -5 -6 -7 -7 -7 -7 -6 -6 -7 -7 -7 -9 -8 -8 -8 -9 -7 -7 -8 -9 -8 -7 -7 -8 -8 -8 -8 -9 -10 -10 -10 -10 -10 -10 -8 -8 -8 -8 -8 -8 -6 -7 -9 -12 -8 -7 -6 -7 -4 -4 -4 -3 -3 -3 -1 4 2 1 1 3 2 2 1 0 -1 -2 -2 1 5 5 3 1 0 -0 -0 -0 0 1 1 0 -0 -1 -2 -4 -5 -4 -2 -1 0 0 -0 -1 -1 -1 0 1 1 2 2 3
-7 -7 -6 -5 -6 -6 -6 -6 -7 -7 -6 -7 -7 -7 -7 -8 -8 -7 -7 -7 -6 -6 -8 -9 -8 -6 -6 -7 -7 -6 -6 -8 -9 -9 -9 -10 -10 -9 -9 -9 -9 -8 -8 -7 -8 -9 -9 -8 -8 -8 -7 -4 -3 -4 -4 -5 -3 -0 4 2 1 1 3 3 2 1 0 -2 -2 -1 4 6 5 2 0 -0 -1 -1 -0 0 0 0 -0 0 -0 -1 -2 -4 -5 -4 -2 -1 -1 -1 -0 0 1 2 3 3 3 3 4
-6 -7 -8 -7 -6 -6 -6 -6 -7 -7 -7 -7 -7 -6 -7 -7 -8 -8 -7 -7 -6 -5 -4 -8 -9 -9 -6 -8 -8 -8 -5 -6 -7 -7 -8 -9 -10 -10 -9 -10 -9 -9 -8 -8 -8 -8 -8 -8 -9 -9 -6 -3 -3 -4 -6 -6 -3 0 2 1 1 2 4 3 2 2 0 -1 -1 1 5 6 4 2 0 -0 -0 -0 -0 0 0 0 -0 0 -0 -0 -1 -3 -5 -5 -4 -2 -1 0 2 3 3 3 2 2 2 3 3
-5 -5 -6 -6 -6 -7 -8 -7 -7 -7 -7 -7 -7 -7 -6 -7 -8 -8 -8 -7 -6 -5 -3 -4 -7 -10 -10 -9 -9 -9 -7 -5 -5 -6 -7 -8 -8 -9 -10 -10 -10 -10 -10 -10 -10 -9 -8 -9 -9 -8 -6 -3 -3 -6 -8 -4 -2 0 1 1 1 3 5 4 3 2 1 1 2 3 4 4 3 2 1 0 -0 -0 0 0 0 0 -0 -0 -1 -1 -1 -2 -4 -4 -4 -2 -0 2 3 3 2 1 0 0 1 1 1
-6 -5 -5 -5 -5 -6 -7 -7 -7 -7 -7 -7 -7 -7 -6 -6 -7 -7 -8 -8 -7 -5 -4 -4 -4 -6 -10 -9 -9 -8 -7 -5 -4 -4 -6 -7 -7 -8 -8 -9 -10 -10 -10 -11 -10 -10 -9 -9 -8 -7 -5 -4 -5 -7 -6 -3 -1 -1 0 0 2 4 5 3 3 3 3 3 3 3 3 2 2 1 0 0 0 1 1 1 0 -1 -1 -1 -1 -1 -1 -1 -1 -2 -3 -2 -1 1 1 1 -0 -1 -1 -1 -0 0 0
-6 -6 -6 -6 -5 -5 -6 -7 -8 -7 -7 -7 -7 -6 -7 -6 -6 -6 -6 -8 -8 -7 -4 -5 -5 -5 -7 -8 -8 -7 -7 -6 -5 -4 -4 -6 -7 -7 -6 -7 -8 -9 -10 -11 -11 -11 -11 -11 -9 -7 -3 -4 -6 -7 -4 -3 -2 -1 0 1 3 4 3 3 3 4 5 5 4 4 3 1 -0 -1 -1 1 2 2 1 -0 -2 -3 -3 -2 -1 0 1 1 1 -0 -2 -3 -3 -2 -2 -2 -1 -1 -1 -1 -1 -1 -0
-5 -5 -6 -6 -6 -6 -6 -7 -8 -8 -7 -7 -7 -6 -6 -6 -6 -5 -5 -6 -7 -8 -7 -5 -5 -5 -5 -7 -7 -7 -7 -7 -7 -7 -6 -6 -6 -7 -7 -7 -7 -8 -9 -10 -10 -11 -11 -11 -10 -7 -3 -3 -4 -6 -5 -4 -2 1 4 3 3 2 2 4 5 6 6 6 5 4 3 1 -1 -2 -1 2 3 1 -1 -3 -4 -4 -3 -1 0 2 3 3 2 0 -2 -4 -4 -4 -3 -2 -2 -1 -1 -2 -1 -1 -1
-5 -4 -4 -5 -6 -7 -7 -7 -8 -8 -8 -7 -7 -6 -6 -6 -5 -5 -5 -4 -6 -7 -9 -7 -5 -4 -2 -4 -5 -6 -5 -6 -7 -8 -9 -9 -8 -7 -6 -6 -7 -7 -8 -8 -9 -9 -10 -10 -9 -8 -4 -1 -1 -3 -4 -2 2 5 6 4 3 3 4 6 7 7 6 6 5 4 2 0 -2 -2 0 2 1 -1 -4 -4 -4 -2 0 2 3 4 4 3 1 -0 -2 -4 -5 -5 -4 -3 -2 -2 -2 -2 -1 -1 -0
-6 -6 -5 -5 -5 -6 -7 -7 -7 -8 -8 -7 -7 -6 -6 -6 -6 -6 -6 -5 -5 -6 -9 -9 -8 -6 -2 -1 -1 -3 -4 -6 -7 -8 -9 -9 -9 -9 -8 -7 -6 -6 -6 -7 -8 -8 -8 -9 -8 -7 -3 0 2 2 2 4 7 9 7 6 7 8 6 7 6 5 3 4 4 4 2 0 -1 -1 -0 0 -1 -2 -3 -2 -0 2 3 4 4 3 3 1 0 -1 -2 -3 -4 -5 -5 -4 -3 -2 -1 -0 0 1 1
-7 -7 -7 -6 -6 -6 -6 -7 -8 -8 -8 -7 -7 -6 -6 -6 -6 -7 -8 -8 -7 -6 -7 -9 -10 -9 -7 -3 -1 -1 -3 -5 -8 -11 -13 -10 -8 -7 -9 -10 -9 -6 -4 -6 -6 -7 -7 -7 -7 -5 -0 2 5 7 9 11 11 10 6 8 10 10 7 7 6 5 5 6 6 4 3 2 0 -1 -1 -1 -0 -0 0 2 3 3 3 3 2 2 1 0 -1 -2 -3 -4 -4 -5 -4 -3 -1 -0 1 1 1 1 1
-6 -6 -7 -7 -7 -6 -6 -7 -7 -8 -7 -7 -6 -6 -6 -6 -6 -6 -6 -8 -8 -7 -6 -8 -9 -10 -12 -9 -5 -3 -3 -5 -6 -8 -12 -15 -13 -9 -5 -7 -10 -11 -7 -5 -6 -6 -5 -4 -3 -2 1 3 6 8 11 11 9 7 6 8 8 8 8 11 10 10 10 9 7 5 4 2 -0 -2 -1 0 1 2 2 2 2 2 2 1 1 0 -1 -1 -2 -3 -3 -3 -3 -3 -2 -1 -0 0 1 1 1 -0 -1
-7 -6 -6 -7 -7 -7 -6 -7 -7 -7 -7 -7 -6 -5 -4 -5 -6 -5 -4 -4 -5 -7 -7 -6 -7 -10 -12 -13 -11 -7 -4 -5 -6 -6 -6 -12 -17 -20 -17 -12 -11 -12 -11 -8 -6 -6 -5 -2 -0 1 2 2 3 4 5 4 4 5 9 8 7 6 9 10 10 10 10 8 7 6 5 1 -1 -1 1 2 3 2 1 1 1 1 1 1 -0 -1 -2 -3 -3 -3 -2 -1 0 0 -0 -1 -1 -1 -0 -1 -2 -2 -3
-7 -7 -7 -7 -7 -7 -7 -7 -7 -7 -7 -6 -5 -4 -3 -3 -4 -5 -4 -3 -3 -6 -9 -8 -7 -6 -9 -12 -12 -9 -6 -5 -6 -9 -11 -10 -11 -15 -23 -22 -19 -16 -12 -7 -4 -2 -2 -1 -0 1 2 2 0 -2 -3 -2 2 6 10 9 8 7 8 7 8 8 8 7 7 6 4 -1 -1 1 4 3 2 1 1 0 0 0 1 0 -0 -1 -2 -2 -2 -1 1 2 2 1 -0 -1 -2 -2 -1 -2 -3 -3 -4
-6 -7 -8 -7 -7 -7 -7 -7 -7 -7 -8 -6 -5 -4 -4 -4 -4 -4 -5 -5 -4 -5 -8 -11 -10 -7 -4 -6 -8 -7 -4 -2 -3 -6 -10 -10 -6 -2 -4 -14 -20 -22 -20 -14 -6 1 5 2 2 3 3 3 0 -2 -4 -2 1 5 9 10 10 9 7 6 6 6 4 5 5 4 0 -2 0 3 4 2 1 0 0 -0 -0 0 1 0 0 -0 -0 -0 0 1 2 2 2 1 -1 -2 -2 -2 -2 -3 -3 -3 -3
-6 -7 -7 -8 -8 -7 -6 -7 -7 -8 -8 -8 -6 -4 -4 -4 -4 -4 -4 -6 -6 -5 -4 -8 -11 -11 -7 -6 -5 -4 -0 0 0 0 -1 -6 -6 -3 1 -3 -11 -19 -23 -28 -25 -15 3 1 3 7 8 5 2 0 -2 -1 2 4 7 9 10 10 8 7 6 4 1 1 1 0 -3 -1 1 3 2 1 0 -0 0 -0 0 1 1 1 1 1 0 0 0 0 1 2 1 0 -1 -2 -3 -3 -3 -3 -2 -2 -2
-6 -7 -7 -7 -7 -7 -7 -7 -6 -6 -8 -8 -8 -7 -5 -4 -4 -4 -4 -5 -6 -6 -4 -3 -6 -10 -14 -11 -9 -6 -1 1 2 1 1 -1 -4 -7 -8 -1 -2 -6 -10 -17 -32 -37 -17 -6 -1 3 13 9 4 1 -0 1 2 4 4 5 8 10 10 8 6 4 0 0 -1 -2 -4 -1 0 1 0 0 0 1 1 1 1 2 2 2 1 1 -0 -0 -0 0 2 2 1 0 -1 -1 -1 -2 -2 -2 -2 -2 -1
-5 -5 -7 -7 -7 -7 -7 -7 -6 -6 -6 -7 -8 -8 -7 -5 -4 -4 -5 -5 -5 -5 -5 -3 -3 -6 -11 -12 -12 -10 -7 -1 1 0 -0 3 3 -0 -8 -6 -3 -0 1 2 -10 -25 -31 -12 -4 -0 10 10 5 1 1 3 3 3 2 4 6 8 8 8 7 5 3 2 -1 -4 -5 -2 0 1 1 1 2 2 2 2 2 2 2 1 0 0 -0 -0 0 1 2 2 2 1 0 0 -0 -1 -2 -3 -3 -2 -1
-5 -4 -5 -6 -6 -6 -6 -6 -6 -6 -5 -5 -6 -6 -6 -5 -5 -4 -4 -4 -3 -4 -5 -4 -2 -1 -4 -10 -13 -13 -12 -5 -1 1 0 2 6 8 3 -6 -12 -16 -16 -9 -3 -4 -14 -14 -10 -3 7 9 4 0 1 4 4 2 2 4 5 6 6 7 6 3 1 -3 -6 -7 -4 1 3 3 3 3 3 3 2 3 2 2 1 0 -0 -0 0 0 1 2 2 2 2 1 1 -0 -2 -4 -5 -5 -4 -3 -1
-5 -4 -4 -4 -5 -5 -5 -6 -6 -5 -5 -5 -4 -4 -4 -4 -4 -4 -4 -3 -2 -2 -3 -4 -2 0 2 -5 -11 -14 -15 -11 -4 2 3 3 5 7 7 3 -1 -6 -14 -18 -16 -10 -4 -6 -14 -17 -4 10 9 2 -2 2 3 3 2 3 3 3 3 1 -2 -5 -7 -9 -7 -4 2 4 4 3 4 4 3 2 2 2 2 1 1 -0 -0 -0 -0 0 1 2 2 2 1 1 0 -2 -4 -6 -6 -6 -4 -2 -1
-5 -4 -4 -3 -3 -4 -5 -5 -5 -5 -4 -4 -4 -4 -4 -4 -4 -4 -3 -2 -2 -1 -0 -2 -2 -1 2 -0 -5 -11 -15 -14 -8 0 7 7 6 5 4 6 8 10 9 -0 -9 -15 -16 -6 -7 -14 -21 2 12 11 2 2 3 4 2 2 1 -0 -2 -5 -7 -8 -7 -5 -1 2 5 3 2 2 3 2 2 2 2 2 1 0 -0 -1 -1 -1 -1 1 2 2 2 1 1 1 -0 -2 -4 -5 -6 -4 -2 -0 1
-4 -4 -3 -3 -3 -3 -4 -5 -5 -5 -4 -4 -3 -3 -3 -3 -4 -4 -3 -2 -2 -1 -1 -1 -2 -2 -1 -1 -3 -8 -11 -9 -7 -4 2 6 6 3 0 1 3 5 8 7 4 -2 -11 -13 -6 -4 -18 -15 -1 13 16 9 5 4 4 2 0 -2 -4 -4 -4 -3 -1 1 3 3 2 1 0 1 1 0 0 0 0 -0 -1 -2 -2 -2 -1 -0 1 2 2 2 2 2 1 0 -2 -3 -5 -5 -5 -2 -0 2 2
-3 -3 -3 -3 -4 -4 -4 -4 -4 -4 -4 -3 -3 -2 -2 -2 -3 -3 -4 -2 -1 -1 -1 -0 -0 -0 -1 -2 -4 -7 -8 -5 -3 -4 -8 -6 -2 1 -1 -2 -1 1 2 3 5 7 6 0 -5 -9 -13 -24 -22 -9 14 14 9 4 5 2 -0 -2 -3 -2 -1 0 0 1 1 1 -0 -0 -0 -0 -1 -1 -1 -1 -2 -2 -2 -2 -2 -0 1 3 4 4 4 3 2 1 0 -1 -4 -5 -4 -3 -1 1 2 2 2
-2 -3 -3 -3 -4 -4 -5 -4 -4 -4 -3 -3 -2 -2 -2 -2 -2 -2 -3 -2 -0 0 -0 0 1 1 -0 -2 -4 -4 -5 -4 -2 -3 -8 -12 -10 -4 1 -0 -0 0 1 1 2 5 9 10 5 -2 -7 -11 -20 -21 -6 6 8 6 4 1 -1 -2 -1 -0 -0 -0 -0 0 0 -0 -0 0 0 -0 -1 -1 -0 -0 -1 -0 1 2 3 4 6 6 6 5 4 3 2 1 -1 -3 -5 -4 -1 2 4 3 2 1 0
-2 -3 -4 -4 -4 -4 -4 -4 -4 -4 -3 -2 -2 -1 -1 -2 -2 -2 -2 -1 -1 0 0 -0 0 0 -0 -2 -2 -2 -2 -3 -4 -5 -6 -9 -10 -8 -3 -1 -0 -1 -1 -2 -0 2 6 8 7 4 -0 -2 -7 -11 -12 -4 2 5 6 2 0 1 2 2 1 1 0 0 0 -0 0 1 1 1 1 2 2 2 3 4 5 6 7 7 6 6 4 4 3 2 1 -1 -3 -4 -4 -1 4 6 5 3 1 -0 -1
Height
3148 3147 3146 3145 3144 3143 3142 3141 3140 3139 3138 3137 3136 3135 3135 3134 3133 3132 3131 3131 3130 3129 3128 3128 3127 3126 3125 3125 3124 3123 3123 3122 3121 3120 3120 3119 3118 3117 3117 3116 3116 3116 3116 3117 3118 3120 3120 3119 3118 3119 3120 3122 3123 3124 3125 3125 3125 3125 3126 3126 3127 3128 3129 3130 3131 3131 3131 3132 3132 3133 3134 3135 3136 3136 3137 3137 3138 3138 3139 3140 3141 3142 3143 3144 3145 3146 3147 3148 3149 3150 3151 3151 3151 3152 3153 3155 3157 3158 3159 3160 3161 3162 3162
3146 3145 3144 3143 3142 3141 3140 3139 3138 3137 3136 3135 3134 3133 3132 3131 3130 3130 3129 3128 3127 3126 3126 3125 3125 3124 3123 3122 3121 3121 3120 3120 3119 3118 3117 3116 3116 3115 3114 3113 3113 3112 3112 3112 3113 3114 3115 3116 3115 3115 3116 3117 3119 3120 3120 3121 3121 3122 3122 3123 3124 3124 3125 3126 3127 3128 3128 3128 3129 3130 3131 3132 3133 3133 3134 3134 3135 3135 3136 3137 3138 3139 3140 3141 3142 3144 3145 3145 3146 3147 3148 3149 3149 3149 3150 3151 3153 3155 3156 3157 3158 3160 3161
3144 3143 3142 3141 3140 3139 3138 3137 3136 3135 3135 3133 3132 3131 3130 3129 3128 3127 3126 3125 3125 3124 3123 3122 3122 3121 3120 3120 3119 3118 3118 3117 3116 3115 3115 3114 3113 3112 3111 3111 3110 3109 3108 3108 3108 3108 3110 3111 3112 3112 3112 3113 3114 3115 3116 3117 3117 3118 3119 3119 3120 3121 3121 3122 3123 3124 3124 3125 3125 3126 3127 3128 3129 3130 3130 3131 3131 3132 3133 3134 3135 3136 3137 3139 3140 3141 3142 3143 3143 3144 3145 3146 3146 3147 3148 3149 3150 3151 3153 3154 3155 3157 3159
3142 3141 3140 3139 3138 3137 3136 3135 3134 3133 3132 3131 3130 3129 3128 3127 3126 3125 3124 3123 3122 3121 3120 3120 3119 3118 3117 3116 3116 3115 3115 3114 3113 3113 3112 3111 3110 3110 3109 3108 3107 3106 3105 3105 3104 3104 3104 3105 3107 3108 3108 3109 3109 3110 3112 3112 3113 3114 3115 3115 3116 3117 3118 3119 3119 3120 3120 3121 3122 3123 3123 3124 3125 3126 3127 3127 3128 3129 3129 3130 3131 3133 3134 3135 3137 3138 3139 3140 3140 3141 3142 3143 3144 3145 3146 3147 3148 3148 3150 3152 3153 3154 3156
3140 3139 3138 3137 3136 3135 3134 3133 3132 3131 3130 3129 3128 3127 3126 3125 3124 3123 3122 3120 3119 3118 3117 3116 3115 3115 3114 3113 3113 3112 3111 3111 3110 3110 3109 3108 3107 3107 3106 3105 3104 3103 3102 3101 3101 3100 3100 3100 3102 3103 3104 3104 3105 3105 3107 3108 3109 3109 3110 3111 3112 3113 3114 3115 3115 3116 3117 3117 3118 3119 3120 3120 3121 3122 3123 3124 3125 3125 3126 3127 3128 3129 3131 3132 3134 3135 3136 3136 3137 3138 3139 3140 3142 3143 3144 3145 3145 3146 3147 3149 3150 3151 3153
3138 3136 3135 3134 3133 3132 3131 3130 3129 3128 3127 3126 3125 3124 3123 3122 3121 3120 3119 3118 3117 3115 3115 3114 3112 3112 3111 3110 3109 3109 3108 3107 3107 3106 3105 3105 3104 3104 3103 3102 3101 3100 3100 3099 3098 3097 3096 3096 3097 3098 3099 3099 3099 3100 3102 3103 3104 3105 3106 3107 3108 3109 3110 3111 3111 3112 3113 3114 3114 3115 3116 3117 3117 3118 3119 3120 3121 3122 3123 3124 3125 3126 3127 3129 3130 3132 3133 3133 3134 3135 3136 3138 3139 3140 3141 3142 3144 3144 3145 3146 3147 3149 3150
3135 3134 3132 3131 3130 3129 3128 3127 3126 3125 3124 3123 3122 3121 3120 3119 3118 3117 3116 3115 3114 3113 3111 3110 3109 3108 3107 3107 3106 3105 3105 3104 3103 3102 3102 3101 3100 3100 3099 3099 3098 3097 3096 3095 3095 3094 3093 3093 3093 3094 3094 3094 3094 3095 3095 3097 3099 3100 3101 3102 3104 3105 3106 3107 3107 3108 3109 3110 3110 3111 3112 3113 3113 3114 3115 3116 3117 3118 3119 3120 3121 3122 3124 3125 3126 3128 3129 3130 3131 3132 3133 3135 3136 3137 3139 3140 3141 3142 3143 3144 3145 3145 3146
3132 3131 3130 3128 3127 3126 3125 3124 3123 3121 3120 3119 3118 3117 3116 3115 3114 3113 3112 3111 3110 3109 3108 3107 3106 3105 3104 3103 3102 3102 3101 3100 3100 3099 3098 3097 3097 3096 3095 3095 3094 3093 3093 3092 3091 3090 3090 3089 3090 3090 3090 3089 3090 3090 3090 3091 3093 3095 3097 3098 3099 3100 3101 3102 3103 3104 3105 3105 3106 3107 3108 3109 3109 3110 3111 3112 3113 3114 3115 3117 3118 3119 3120 3121 3122 3124 3125 3126 3127 3129 3130 3132 3133 3135 3136 3137 3139 3140 3140 3141 3142 3143 3144
3129 3128 3127 3125 3124 3123 3122 3121 3120 3119 3117 3116 3115 3114 3113 3112 3111 3110 3109 3108 3106 3105 3105 3104 3102 3101 3100 3100 3099 3098 3097 3096 3096 3095 3094 3094 3093 3092 3091 3090 3090 3089 3089 3088 3088 3087 3086 3086 3086 3086 3085 3085 3085 3085 3085 3086 3087 3089 3091 3093 3095 3095 3097 3098 3099 3100 3100 3101 3102 3103 3104 3104 3105 3106 3107 3108 3109 3110 3111 3113 3114 3115 3116 3117 3118 3120 3121 3123 3124 3125 3127 3129 3130 3131 3133 3134 3136 3137 3138 3139 3140 3141 3142
3127 3125 3124 3123 3122 3120 3119 3118 3117 3115 3115 3113 3112 3111 3110 3109 3107 3106 3105 3104 3103 3102 3101 3100 3099 3098 3097 3096 3095 3094 3093 3092 3092 3091 3090 3090 3089 3088 3087 3086 3085 3085 3085 3084 3084 3083 3083 3083 3082 3082 3081 3081 3081 3081 3081 3081 3082 3083 3084 3086 3089 3090 3092 3093 3094 3095 3096 3097 3097 3098 3099 3100 3101 3102 3103 3104 3105 3106 3107 3109 3110 3111 3112 3113 3115 3116 3117 3119 3120 3122 3124 3125 3127 3129 3130 3131 3133 3134 3135 3136 3138 3139 3140
3125 3123 3122 3120 3119 3118 3117 3115 3114 3113 3111 3110 3109 3108 3107 3105 3104 3103 3102 3101 3100 3099 3097 3096 3095 3094 3093 3092 3091 3090 3089 3089 3088 3087 3086 3085 3085 3084 3083 3082 3081 3080 3080 3080 3079 3079 3079 3079 3079 3078 3077 3077 3076 3076 3076 3077 3078 3079 3079 3080 3082 3084 3086 3088 3089 3090 3091 3092 3093 3094 3095 3095 3096 3097 3099 3100 3101 3102 3103 3105 3106 3107 3108 3110 3111 3112 3113 3115 3117 3119 3120 3122 3124 3126 3127 3128 3130 3131 3132 3134 3135 3136 3137
3123 3122 3120 3119 3117 3115 3114 3113 3111 3110 3109 3107 3106 3105 3104 3102 3101 3100 3098 3097 3096 3095 3094 3093 3092 3090 3090 3088 3087 3086 3085 3085 3084 3083 3082 3081 3080 3080 3079 3078 3077 3076 3075 3075 3075 3075 3075 3075 3075 3074 3073 3073 3072 3072 3072 3072 3073 3074 3075 3075 3076 3077 3079 3082 3084 3085 3086 3087 3088 3089 3090 3091 3092 3093 3094 3095 3096 3098 3099 3100 3101 3103 3104 3105 3107 3108 3110 3111 3113 3115 3117 3119 3120 3122 3124 3125 3127 3128 3129 3131 3132 3133 3134
3121 3120 3118 3116 3115 3113 3112 3110 3109 3107 3105 3104 3103 3101 3100 3099 3097 3096 3095 3093 3092 3091 3090 3089 3088 3086 3085 3084 3083 3082 3081 3081 3080 3079 3078 3077 3076 3075 3074 3073 3072 3071 3071 3070 3070 3070 3070 3070 3070 3070 3069 3068 3068 3067 3067 3067 3068 3069 3070 3071 3071 3071 3072 3075 3077 3080 3081 3082 3084 3085 3085 3086 3087 3089 3090 3091 3092 3093 3095 3096 3097 3099 3100 3102 3103 3105 3106 3107 3109 3111 3113 3115 3117 3119 3120 3122 3124 3125 3126 3127 3129 3130 3131
3119 3117 3116 3114 3112 3111 3109 3107 3106 3104 3102 3101 3099 3098 3097 3095 3094 3092 3091 3090 3088 3087 3085 3085 3083 3082 3081 3080 3079 3078 3077 3076 3076 3075 3074 3073 3072 3071 3070 3069 3068 3067 3066 3065 3065 3065 3065 3065 3065 3065 3065 3064 3064 3063 3063 3063 3063 3064 3065 3066 3066 3066 3066 3067 3070 3073 3075 3077 3078 3080 3080 3082 3083 3084 3085 3086 3088 3089 3090 3092 3093 3095 3096 3097 3099 3100 3102 3104 3105 3107 3109 3110 3113 3115 3117 3119 3120 3121 3123 3124 3125 3126 3128
3116 3115 3113 3111 3109 3107 3106 3104 3102 3101 3099 3097 3096 3094 3093 3092 3090 3089 3087 3086 3085 3083 3082 3080 3079 3078 3076 3075 3074 3073 3073 3072 3071 3070 3070 3069 3068 3066 3065 3064 3063 3062 3061 3061 3060 3060 3060 3060 3060 3060 3060 3060 3059 3059 3058 3058 3058 3059 3060 3060 3061 3061 3061 3061 3063 3065 3068 3071 3073 3074 3075 3077 3078 3079 3080 3082 3083 3085 3086 3087 3089 3090 3092 3093 3095 3096 3098 3100 3101 3103 3105 3106 3109 3110 3113 3115 3116 3118 3119 3120 3122 3123 3125
3113 3111 3110 3108 3106 3104 3102 3100 3099 3097 3095 3094 3092 3091 3089 3088 3086 3085 3083 3082 3080 3079 3078 3076 3075 3073 3072 3071 3070 3069 3068 3067 3067 3066 3065 3064 3063 3062 3061 3060 3059 3058 3057 3056 3055 3055 3055 3055 3055 3055 3055 3055 3055 3054 3054 3054 3054 3054 3055 3055 3056 3056 3057 3057 3057 3058 3060 3064 3067 3069 3070 3072 3073 3075 3076 3077 3078 3080 3081 3083 3084 3086 3087 3089 3090 3092 3094 3095 3097 3099 3100 3102 3104 3106 3109 3110 3113 3114 3116 3117 3119 3120 3122
3110 3108 3106 3104 3102 3100 3099 3097 3095 3093 3092 3090 3088 3087 3085 3084 3082 3081 3079 3078 3076 3075 3073 3072 3070 3069 3068 3066 3065 3064 3062 3062 3061 3061 3060 3060 3059 3058 3057 3055 3055 3053 3052 3051 3050 3050 3050 3050 3050 3050 3050 3050 3050 3049 3049 3049 3049 3050 3050 3050 3050 3051 3051 3052 3052 3052 3053 3056 3059 3063 3065 3067 3068 3070 3071 3072 3074 3075 3076 3078 3080 3081 3083 3085 3086 3088 3090 3091 3093 3095 3096 3098 3100 3102 3104 3106 3109 3111 3112 3114 3115 3117 3119
3106 3104 3102 3100 3099 3097 3095 3094 3092 3090 3088 3087 3085 3083 3082 3080 3078 3077 3075 3074 3072 3070 3069 3067 3066 3064 3063 3061 3060 3059 3057 3056 3056 3055 3055 3055 3054 3053 3052 3051 3050 3049 3048 3047 3046 3045 3045 3044 3044 3044 3044 3045 3044 3044 3044 3044 3045 3045 3045 3045 3045 3045 3046 3046 3047 3047 3048 3049 3051 3055 3059 3061 3063 3064 3066 3067 3069 3070 3071 3073 3075 3077 3078 3080 3082 3083 3085 3087 3088 3090 3092 3094 3095 3097 3100 3102 3105 3107 3109 3110 3112 3114 3115
3101 3100 3098 3096 3095 3093 3091 3090 3088 3086 3085 3083 3081 3080 3078 3077 3075 3073 3072 3070 3068 3067 3065 3063 3061 3060 3059 3057 3055 3054 3052 3051 3050 3050 3049 3049 3048 3048 3047 3046 3045 3044 3043 3042 3041 3040 3040 3039 3039 3039 3039 3039 3039 3039 3039 3039 3040 3040 3040 3040 3040 3040 3040 3041 3042 3042 3043 3044 3045 3047 3051 3054 3057 3059 3060 3062 3063 3065 3067 3069 3070 3072 3074 3075 3077 3079 3080 3082 3084 3086 3087 3089 3091 3093 3095 3098 3100 3103 3105 3107 3109 3110 3112
3096 3095 3093 3091 3089 3088 3086 3084 3082 3080 3079 3077 3075 3074 3073 3071 3070 3068 3067 3066 3064 3063 3061 3060 3058 3056 3055 3053 3051 3049 3048 3046 3045 3045 3043 3043 3042 3042 3041 3040 3040 3039 3038 3037 3036 3035 3035 3034 3034 3033 3033 3033 3033 3033 3033 3034 3035 3035 3035 3035 3035 3035 3035 3035 3036 3037 3038 3039 3039 3040 3043 3046 3050 3053 3055 3056 3058 3060 3062 3064 3065 3067 3069 3070 3072 3074 3076 3078 3080 3081 3083 3085 3087 3089 3091 3093 3096 3098 3101 3103 3105 3107 3108
3091 3089 3087 3085 3083 3080 3078 3076 3074 3072 3071 3069 3068 3066 3064 3064 3062 3061 3060 3059 3058 3057 3056 3055 3053 3051 3050 3048 3047 3045 3043 3042 3041 3040 3038 3037 3037 3036 3036 3035 3034 3034 3033 3032 3031 3030 3030 3029 3028 3028 3028 3028 3027 3027 3028 3028 3029 3030 3030 3030 3030 3030 3030 3030 3031 3032 3033 3033 3034 3035 3036 3038 3042 3045 3049 3051 3053 3055 3057 3059 3060 3062 3064 3065 3067 3069 3071 3073 3075 3077 3079 3080 3082 3085 3086 3089 3091 3094 3096 3099 3101 3103 3105
3086 3084 3081 3079 3076 3073 3071 3068 3066 3065 3063 3061 3060 3058 3056 3055 3054 3053 3051 3051 3050 3049 3048 3047 3046 3045 3044 3043 3042 3040 3039 3037 3036 3035 3033 3032 3031 3031 3030 3030 3029 3028 3028 3027 3026 3025 3025 3024 3023 3023 3022 3022 3021 3021 3022 3023 3023 3024 3024 3024 3025 3025 3025 3025 3026 3027 3027 3028 3029 3029 3030 3031 3034 3038 3042 3045 3047 3050 3051 3053 3055 3057 3059 3060 3062 3064 3066 3068 3070 3072 3074 3076 3078 3080 3082 3084 3086 3089 3092 3095 3097 3099 3101
3082 3080 3077 3074 3071 3068 3066 3063 3061 3059 3058 3056 3055 3053 3051 3049 3048 3047 3045 3043 3042 3042 3040 3040 3039 3038 3037 3037 3035 3034 3033 3032 3031 3029 3028 3027 3026 3025 3025 3024 3023 3023 3022 3021 3021 3020 3020 3019 3018 3018 3017 3016 3016 3016 3016 3017 3018 3018 3018 3019 3019 3019 3020 3020 3020 3021 3022 3022 3023 3024 3025 3026 3027 3030 3034 3038 3041 3044 3046 3048 3050 3052 3053 3055 3057 3059 3061 3063 3065 3067 3069 3071 3073 3075 3077 3080 3082 3085 3087 3090 3093 3095 3098
3078 3075 3072 3070 3067 3065 3062 3060 3059 3056 3054 3052 3051 3050 3047 3045 3044 3043 3041 3038 3037 3035 3035 3033 3032 3031 3030 3030 3029 3028 3027 3027 3025 3024 3022 3021 3021 3020 3019 3019 3018 3017 3017 3016 3015 3015 3015 3014 3013 3013 3012 3011 3010 3010 3010 3011 3012 3012 3012 3013 3014 3014 3014 3015 3015 3016 3016 3017 3018 3019 3020 3020 3021 3023 3026 3030 3034 3037 3040 3043 3045 3046 3048 3050 3052 3054 3056 3058 3060 3062 3065 3066 3069 3071 3073 3075 3078 3080 3083 3085 3088 3091 3093
3075 3072 3069 3067 3065 3062 3060 3058 3056 3054 3052 3049 3048 3046 3044 3042 3040 3039 3037 3035 3033 3031 3030 3028 3026 3025 3024 3024 3023 3021 3021 3020 3020 3019 3017 3016 3015 3015 3014 3013 3012 3012 3011 3011 3010 3010 3009 3009 3008 3007 3007 3006 3005 3005 3005 3005 3005 3006 3006 3007 3008 3009 3009 3010 3010 3011 3011 3012 3012 3013 3014 3015 3016 3017 3019 3022 3026 3030 3034 3037 3039 3041 3043 3045 3046 3049 3051 3053 3055 3057 3060 3062 3064 3066 3068 3070 3073 3075 3078 3080 3083 3086 3089
3071 3069 3066 3065 3062 3060 3058 3056 3054 3052 3050 3047 3045 3043 3041 3039 3036 3034 3034 3032 3030 3027 3026 3024 3022 3020 3019 3018 3017 3016 3015 3014 3014 3013 3011 3010 3010 3009 3008 3007 3007 3006 3006 3005 3005 3004 3004 3004 3003 3002 3001 3001 3000 3000 3000 3000 3000 3000 3000 3001 3002 3003 3003 3004 3005 3005 3006 3006 3007 3008 3009 3010 3011 3012 3013 3015 3019 3023 3027 3030 3033 3035 3037 3039 3041 3043 3045 3048 3050 3052 3055 3057 3059 3061 3063 3065 3068 3070 3073 3075 3078 3081 3084
3069 3067 3065 3062 3060 3059 3056 3054 3052 3050 3047 3045 3042 3040 3038 3036 3034 3031 3029 3028 3026 3024 3022 3020 3018 3016 3015 3013 3011 3010 3009 3008 3007 3007 3005 3005 3004 3003 3002 3002 3001 3001 3000 2999 2999 2999 2998 2998 2997 2997 2996 2995 2995 2994 2994 2994 2994 2994 2995 2995 2996 2997 2998 2999 3000 3000 3001 3001 3002 3002 3003 3004 3005 3007 3008 3010 3012 3015 3019 3024 3027 3030 3032 3034 3036 3038 3040 3042 3045 3047 3049 3051 3054 3056 3058 3061 3063 3066 3068 3071 3074 3076 3080
3067 3065 3063 3060 3059 3057 3055 3052 3050 3048 3045 3043 3040 3037 3035 3034 3031 3028 3026 3025 3023 3020 3018 3016 3014 3012 3010 3008 3006 3005 3003 3002 3001 3000 2999 2998 2998 2997 2996 2995 2995 2995 2994 2994 2993 2993 2992 2992 2992 2991 2991 2990 2990 2989 2988 2988 2988 2989 2989 2990 2990 2991 2992 2993 2994 2995 2996 2996 2997 2997 2998 2999 3000 3001 3003 3004 3006 3008 3012 3016 3020 3024 3026 3029 3031 3033 3035 3037 3039 3041 3044 3046 3049 3051 3054 3056 3058 3061 3064 3066 3069 3072 3075
3065 3063 3061 3059 3057 3055 3053 3050 3048 3045 3043 3041 3039 3035 3032 3030 3029 3026 3023 3021 3019 3017 3015 3013 3010 3008 3006 3004 3002 3000 2998 2996 2995 2995 2993 2992 2991 2991 2990 2989 2989 2988 2988 2988 2987 2987 2986 2986 2986 2986 2985 2985 2985 2984 2983 2983 2983 2983 2984 2984 2985 2985 2986 2987 2989 2990 2991 2992 2992 2992 2993 2994 2995 2996 2997 2999 3000 3003 3005 3009 3013 3017 3020 3023 3025 3027 3029 3031 3034 3036 3038 3041 3043 3046 3048 3051 3054 3056 3059 3061 3064 3067 3070
3064 3061 3060 3057 3055 3053 3051 3049 3046 3043 3041 3039 3036 3034 3030 3028 3025 3023 3020 3018 3015 3013 3011 3009 3007 3004 3002 3000 2998 2995 2993 2991 2990 2989 2987 2986 2986 2985 2984 2983 2982 2982 2981 2981 2981 2980 2980 2980 2980 2980 2980 2979 2979 2978 2978 2977 2977 2978 2978 2978 2979 2980 2980 2982 2984 2985 2986 2987 2987 2987 2988 2989 2990 2991 2993 2994 2995 2997 3000 3002 3006 3010 3014 3017 3020 3022 3024 3026 3028 3031 3033 3035 3038 3041 3043 3046 3049 3051 3054 3057 3060 3062 3065
3063 3060 3058 3056 3053 3051 3049 3047 3044 3042 3039 3037 3034 3031 3028 3025 3023 3020 3017 3015 3012 3010 3007 3005 3003 3000 2998 2996 2994 2992 2990 2987 2985 2984 2982 2981 2980 2979 2978 2977 2976 2976 2975 2975 2975 2975 2974 2974 2974 2974 2974 2973 2973 2973 2973 2972 2972 2972 2973 2973 2974 2974 2975 2977 2978 2980 2981 2981 2982 2983 2984 2984 2985 2987 2988 2989 2991 2992 2994 2996 2999 3003 3007 3010 3014 3016 3018 3020 3023 3025 3028 3030 3033 3035 3038 3041 3044 3046 3049 3052 3055 3058 3060
3061 3059 3056 3054 3052 3050 3047 3045 3042 3040 3037 3035 3032 3029 3026 3023 3020 3017 3014 3011 3009 3006 3004 3001 2999 2997 2995 2993 2990 2988 2986 2984 2982 2980 2978 2977 2975 2974 2973 2972 2971 2970 2969 2969 2969 2968 2968 2967 2967 2968 2967 2967 2967 2967 2967 2967 2966 2967 2968 2968 2969 2969 2970 2972 2973 2974 2975 2976 2977 2978 2979 2980 2981 2982 2983 2985 2986 2988 2989 2991 2993 2996 3000 3004 3007 3010 3013 3015 3017 3020 3022 3025 3028 3030 3033 3036 3039 3042 3045 3047 3050 3053 3056
3060 3057 3055 3052 3050 3048 3045 3043 3040 3037 3035 3032 3030 3027 3023 3020 3017 3015 3012 3009 3006 3003 3000 2998 2996 2993 2991 2989 2987 2985 2983 2981 2979 2976 2975 2973 2971 2970 2969 2968 2966 2965 2964 2964 2963 2962 2961 2961 2962 2962 2961 2961 2961 2961 2961 2961 2961 2961 2962 2963 2964 2965 2965 2967 2968 2969 2970 2970 2972 2973 2974 2975 2976 2977 2979 2980 2981 2983 2984 2986 2988 2990 2993 2997 3001 3004 3007 3010 3012 3015 3017 3020 3023 3025 3028 3031 3034 3037 3040 3042 3045 3048 3051
3058 3056 3054 3051 3048 3046 3044 3041 3038 3035 3032 3030 3027 3024 3021 3018 3015 3012 3009 3006 3003 3000 2998 2995 2993 2990 2988 2986 2984 2982 2980 2979 2976 2974 2972 2970 2968 2966 2965 2963 2962 2960 2959 2959 2958 2957 2956 2956 2956 2956 2955 2955 2955 2955 2955 2955 2955 2956 2956 2957 2958 2959 2960 2961 2962 2963 2964 2965 2967 2968 2970 2971 2972 2973 2974 2975 2977 2978 2980 2981 2983 2985 2987 2991 2995 2998 3001 3004 3007 3010 3012 3015 3018 3020 3023 3026 3029 3031 3034 3037 3040 3043 3046
3057 3055 3052 3050 3046 3044 3041 3039 3036 3033 3030 3027 3024 3021 3018 3015 3012 3009 3006 3003 3000 2997 2995 2992 2990 2987 2985 2984 2982 2980 2978 2976 2974 2971 2969 2967 2965 2963 2961 2960 2958 2956 2955 2954 2953 2952 2951 2951 2950 2950 2949 2949 2950 2950 2949 2950 2950 2950 2951 2952 2953 2954 2955 2956 2957 2958 2959 2960 2961 2963 2965 2966 2967 2969 2970 2971 2972 2973 2975 2977 2978 2980 2983 2985 2989 2992 2995 2999 3002 3005 3007 3010 3012 3015 3018 3020 3023 3026 3029 3032 3035 3038 3041
3055 3053 3050 3048 3045 3042 3039 3036 3034 3031 3028 3025 3021 3018 3015 3012 3009 3006 3003 3000 2997 2994 2991 2989 2987 2985 2982 2980 2979 2977 2975 2973 2970 2968 2966 2964 2962 2960 2958 2956 2954 2952 2951 2949 2948 2947 2946 2946 2945 2944 2944 2944 2944 2944 2944 2944 2944 2945 2946 2947 2948 2949 2950 2951 2952 2953 2954 2955 2956 2958 2960 2961 2963 2964 2965 2966 2968 2969 2970 2972 2974 2976 2978 2980 2983 2986 2990 2993 2996 2999 3002 3005 3007 3010 3013 3015 3018 3021 3024 3027 3030 3033 3036
3054 3051 3048 3046 3043 3040 3037 3034 3031 3028 3025 3022 3019 3016 3013 3009 3006 3003 3000 2997 2994 2991 2989 2986 2984 2982 2980 2978 2976 2974 2971 2969 2967 2965 2962 2960 2958 2956 2954 2952 2950 2949 2947 2945 2943 2942 2941 2940 2940 2939 2939 2939 2939 2938 2938 2938 2939 2940 2941 2941 2942 2943 2944 2945 2946 2948 2949 2950 2951 2953 2955 2957 2959 2960 2961 2962 2963 2965 2966 2968 2970 2971 2973 2975 2977 2980 2984 2987 2991 2994 2997 3000 3002 3005 3007 3010 3013 3016 3019 3022 3025 3028 3031
3053 3050 3046 3044 3041 3038 3035 3032 3029 3026 3023 3020 3016 3013 3010 3007 3003 3000 2997 2994 2991 2988 2986 2983 2981 2980 2978 2975 2973 2971 2969 2966 2964 2961 2959 2957 2955 2953 2950 2949 2947 2945 2943 2941 2939 2938 2937 2935 2934 2934 2934 2934 2933 2933 2933 2933 2934 2935 2935 2936 2937 2938 2939 2940 2941 2942 2944 2945 2946 2948 2950 2953 2955 2955 2957 2958 2959 2960 2962 2964 2965 2967 2969 2970 2973 2975 2978 2982 2985 2989 2992 2995 2997 3000 3002 3005 3008 3011 3014 3017 3020 3024 3027
3050 3048 3045 3042 3039 3036 3033 3030 3027 3024 3020 3018 3014 3011 3008 3005 3001 2998 2995 2992 2989 2986 2984 2981 2979 2977 2975 2973 2971 2968 2966 2964 2961 2959 2956 2954 2951 2949 2947 2945 2943 2941 2939 2937 2935 2934 2932 2930 2930 2930 2929 2929 2928 2927 2927 2928 2929 2930 2930 2931 2932 2933 2934 2935 2936 2937 2938 2940 2941 2943 2946 2948 2950 2951 2952 2953 2955 2956 2958 2960 2961 2963 2965 2966 2969 2971 2973 2976 2980 2983 2986 2990 2992 2995 2998 3001 3004 3007 3010 3013 3016 3019 3022
3048 3046 3043 3040 3037 3034 3030 3027 3024 3021 3018 3015 3012 3009 3005 3002 2999 2995 2992 2990 2987 2985 2982 2980 2977 2974 2972 2970 2969 2966 2964 2961 2959 2956 2953 2951 2948 2946 2943 2941 2939 2937 2935 2933 2931 2929 2927 2926 2925 2925 2924 2924 2923 2922 2923 2923 2924 2925 2925 2926 2928 2929 2930 2931 2932 2933 2934 2935 2937 2939 2941 2943 2945 2946 2948 2949 2951 2952 2954 2955 2957 2959 2960 2962 2964 2966 2969 2971 2975 2978 2981 2985 2988 2991 2994 2996 2999 3002 3005 3007 3011 3014 3017
3046 3043 3041 3038 3035 3031 3029 3025 3022 3019 3016 3013 3010 3007 3003 3000 2996 2993 2990 2988 2985 2983 2980 2978 2975 2973 2970 2968 2966 2964 2961 2959 2956 2954 2950 2948 2945 2943 2940 2938 2935 2933 2931 2929 2927 2925 2923 2922 2921 2920 2920 2919 2918 2918 2918 2918 2919 2920 2921 2922 2924 2925 2925 2926 2928 2929 2930 2931 2933 2934 2936 2938 2940 2942 2944 2945 2947 2949 2950 2952 2953 2955 2956 2958 2960 2962 2965 2967 2970 2974 2977 2980 2983 2986 2989 2991 2994 2997 3000 3002 3005 3009 3012
3045 3042 3038 3035 3032 3029 3026 3023 3020 3017 3014 3011 3008 3005 3001 2998 2995 2991 2989 2986 2983 2981 2979 2977 2974 2971 2969 2966 2964 2962 2959 2957 2954 2951 2948 2945 2943 2940 2937 2935 2932 2930 2928 2926 2924 2921 2919 2918 2916 2915 2915 2915 2914 2914 2913 2913 2914 2915 2916 2918 2919 2920 2921 2923 2924 2925 2926 2927 2929 2930 2931 2933 2935 2937 2939 2941 2943 2945 2946 2948 2949 2950 2952 2954 2956 2959 2961 2964 2966 2970 2973 2975 2978 2981 2984 2986 2989 2991 2995 2997 3000 3004 3007
3043 3040 3037 3034 3030 3027 3024 3021 3018 3015 3012 3009 3006 3002 2999 2996 2993 2990 2987 2984 2982 2979 2977 2975 2973 2970 2968 2965 2962 2960 2957 2954 2951 2949 2946 2943 2940 2938 2935 2932 2930 2927 2925 2923 2920 2918 2916 2914 2913 2912 2911 2910 2910 2909 2909 2909 2910 2911 2913 2914 2915 2916 2918 2919 2920 2922 2923 2924 2925 2926 2927 2928 2930 2932 2935 2937 2939 2941 2942 2943 2945 2947 2949 2951 2953 2956 2958 2960 2963 2965 2968 2970 2973 2975 2978 2981 2984 2987 2990 2993 2995 2998 3001
3040 3038 3035 3032 3029 3025 3022 3019 3016 3013 3010 3007 3004 3000 2997 2994 2991 2988 2985 2983 2980 2978 2975 2974 2972 2970 2966 2964 2961 2958 2955 2952 2949 2946 2943 2940 2938 2935 2932 2930 2927 2925 2922 2920 2917 2915 2913 2911 2910 2909 2908 2907 2906 2905 2905 2905 2907 2908 2908 2909 2910 2912 2914 2916 2917 2919 2920 2920 2921 2922 2923 2924 2925 2927 2930 2933 2935 2936 2938 2939 2941 2944 2946 2948 2950 2953 2955 2957 2958 2960 2963 2965 2968 2970 2973 2976 2979 2982 2985 2988 2990 2994 2997
3038 3035 3032 3030 3027 3024 3020 3017 3015 3011 3008 3005 3001 2998 2995 2992 2990 2987 2984 2982 2980 2977 2975 2972 2970 2969 2966 2963 2960 2956 2953 2950 2946 2943 2940 2937 2935 2932 2930 2928 2925 2923 2920 2918 2915 2913 2911 2909 2907 2906 2905 2904 2903 2902 2901 2903 2904 2904 2905 2906 2907 2909 2911 2913 2914 2915 2916 2917 2918 2919 2920 2920 2921 2923 2926 2929 2931 2932 2934 2936 2939 2941 2943 2945 2947 2949 2951 2952 2954 2956 2958 2960 2963 2966 2969 2971 2975 2977 2980 2983 2986 2989 2992
3037 3034 3030 3028 3025 3022 3019 3016 3012 3009 3006 3003 2999 2996 2993 2990 2988 2985 2983 2980 2978 2976 2974 2971 2969 2967 2965 2962 2959 2955 2952 2948 2945 2941 2938 2935 2932 2930 2927 2925 2923 2921 2918 2916 2913 2911 2909 2907 2905 2904 2903 2902 2900 2900 2899 2900 2900 2901 2901 2903 2905 2906 2907 2909 2910 2911 2912 2913 2915 2915 2916 2917 2918 2919 2922 2924 2927 2929 2931 2934 2936 2938 2940 2942 2944 2945 2946 2948 2950 2952 2954 2956 2959 2962 2965 2967 2970 2973 2976 2979 2982 2985 2988
3035 3032 3029 3026 3023 3020 3017 3014 3011 3007 3004 3000 2997 2994 2991 2989 2986 2984 2981 2979 2976 2974 2972 2970 2967 2965 2963 2961 2958 2955 2950 2947 2943 2939 2935 2933 2930 2928 2925 2923 2920 2919 2917 2914 2911 2909 2907 2905 2903 2902 2901 2900 2899 2898 2898 2898 2898 2898 2899 2900 2901 2903 2905 2906 2908 2909 2910 2911 2911 2912 2913 2914 2914 2915 2918 2921 2924 2926 2929 2931 2933 2935 2936 2938 2939 2941 2942 2944 2946 2948 2950 2953 2955 2958 2961 2964 2966 2970 2972 2975 2978 2981 2984
3032 3030 3027 3025 3022 3019 3015 3012 3009 3005 3002 2999 2995 2992 2990 2987 2985 2983 2980 2978 2975 2973 2971 2969 2966 2963 2961 2959 2957 2953 2949 2945 2941 2938 2934 2930 2928 2926 2924 2921 2918 2916 2914 2912 2909 2907 2905 2903 2901 2900 2899 2898 2896 2895 2895 2895 2895 2895 2895 2896 2897 2899 2901 2903 2905 2906 2907 2908 2908 2909 2909 2910 2910 2912 2915 2918 2921 2923 2925 2927 2929 2931 2933 2934 2936 2937 2939 2941 2943 2945 2947 2950 2952 2955 2957 2960 2962 2965 2968 2970 2973 2976 2979
3031 3028 3025 3022 3020 3017 3014 3010 3007 3004 3000 2997 2994 2991 2988 2986 2984 2981 2979 2977 2975 2972 2970 2968 2965 2962 2959 2956 2954 2951 2948 2944 2940 2937 2934 2930 2925 2922 2920 2919 2916 2913 2911 2909 2907 2905 2903 2901 2899 2898 2896 2895 2894 2892 2892 2891 2891 2892 2892 2893 2894 2895 2897 2899 2900 2902 2903 2904 2905 2905 2906 2906 2907 2910 2913 2915 2917 2920 2921 2924 2925 2927 2929 2931 2932 2934 2935 2937 2940 2942 2944 2947 2949 2951 2954 2956 2958 2960 2963 2965 2968 2971 2974
3029 3026 3023 3020 3017 3015 3012 3008 3005 3001 2998 2995 2992 2990 2987 2985 2982 2980 2978 2976 2973 2971 2968 2966 2964 2961 2958 2954 2952 2949 2946 2943 2940 2936 2932 2929 2926 2921 2917 2915 2913 2911 2908 2907 2905 2903 2901 2899 2897 2895 2895 2893 2892 2891 2890 2889 2889 2890 2890 2891 2892 2892 2893 2895 2896 2898 2899 2900 2901 2902 2902 2903 2905 2907 2910 2912 2914 2916 2918 2920 2922 2924 2926 2928 2929 2931 2933 2935 2937 2939 2942 2944 2946 2947 2949 2951 2954 2956 2958 2961 2964 2967 2970
3027 3024 3021 3018 3015 3013 3010 3007 3003 3000 2996 2993 2990 2988 2985 2983 2981 2979 2977 2975 2972 2970 2967 2964 2962 2960 2957 2954 2951 2948 2946 2942 2939 2935 2931 2928 2926 2924 2920 2915 2911 2908 2905 2903 2902 2901 2899 2896 2895 2894 2893 2892 2891 2890 2890 2889 2889 2889 2889 2889 2890 2890 2891 2892 2893 2895 2895 2896 2897 2898 2899 2900 2902 2905 2907 2909 2911 2913 2915 2917 2919 2921 2923 2925 2926 2928 2930 2932 2934 2936 2939 2940 2942 2944 2945 2947 2950 2952 2954 2957 2960 2963 2966
3025 3022 3019 3016 3014 3011 3008 3005 3001 2998 2995 2991 2988 2986 2984 2981 2980 2978 2975 2973 2971 2969 2966 2963 2960 2958 2956 2954 2951 2948 2945 2942 2939 2936 2933 2929 2925 2923 2921 2916 2911 2907 2903 2899 2897 2897 2896 2894 2893 2892 2891 2890 2890 2890 2889 2889 2888 2888 2888 2888 2888 2889 2890 2890 2891 2892 2893 2893 2894 2895 2896 2898 2900 2902 2904 2906 2908 2910 2912 2915 2916 2919 2920 2922 2924 2925 2927 2929 2931 2933 2935 2937 2938 2940 2942 2944 2946 2948 2950 2953 2956 2959 2963
3023 3020 3017 3014 3011 3009 3006 3003 3000 2996 2993 2989 2986 2984 2981 2980 2978 2976 2974 2972 2970 2967 2965 2963 2960 2956 2953 2952 2950 2947 2945 2942 2939 2936 2933 2930 2926 2922 2919 2917 2913 2909 2905 2900 2895 2892 2892 2892 2890 2890 2890 2889 2889 2888 2888 2888 2887 2887 2887 2887 2887 2887 2888 2889 2890 2890 2891 2892 2892 2893 2894 2896 2898 2900 2902 2904 2906 2908 2910 2912 2914 2916 2917 2919 2921 2922 2924 2926 2928 2930 2932 2934 2935 2937 2938 2940 2942 2945 2947 2949 2952 2955 2959
3021 3019 3016 3013 3010 3007 3004 3001 2998 2994 2991 2987 2985 2982 2980 2978 2976 2975 2973 2970 2968 2966 2964 2962 2959 2956 2952 2950 2948 2946 2944 2942 2939 2936 2933 2931 2928 2924 2919 2916 2914 2910 2906 2903 2898 2893 2890 2890 2889 2888 2888 2888 2888 2887 2887 2887 2886 2886 2886 2886 2886 2886 2887 2888 2888 2889 2890 2890 2890 2891 2893 2895 2896 2898 2900 2902 2904 2905 2908 2910 2911 2913 2915 2916 2918 2920 2921 2923 2925 2927 2929 2930 2932 2934 2935 2937 2939 2941 2943 2945 2948 2951 2955
3020 3017 3014 3011 3008 3005 3002 2999 2996 2992 2989 2986 2983 2980 2978 2976 2975 2973 2971 2970 2967 2965 2963 2961 2959 2956 2952 2949 2947 2945 2943 2941 2939 2936 2933 2930 2928 2925 2921 2916 2912 2908 2905 2903 2900 2897 2892 2890 2888 2886 2886 2887 2887 2886 2886 2886 2886 2885 2885 2885 2885 2885 2885 2886 2887 2887 2888 2887 2888 2890 2892 2894 2895 2897 2898 2900 2901 2903 2905 2907 2909 2910 2912 2914 2915 2917 2919 2921 2923 2924 2926 2927 2929 2930 2932 2933 2935 2937 2939 2941 2945 2948 2951
3018 3015 3012 3010 3006 3003 3000 2997 2994 2990 2987 2984 2981 2979 2977 2975 2974 2972 2970 2969 2967 2965 2962 2960 2958 2955 2953 2949 2946 2944 2942 2940 2939 2936 2934 2930 2928 2925 2922 2918 2914 2910 2906 2903 2900 2897 2895 2892 2888 2885 2885 2886 2886 2886 2886 2886 2885 2885 2885 2884 2884 2884 2884 2884 2885 2885 2885 2887 2889 2890 2892 2892 2894 2895 2896 2897 2899 2901 2903 2904 2906 2908 2909 2911 2913 2914 2916 2918 2920 2921 2923 2924 2926 2927 2929 2930 2931 2934 2936 2939 2942 2945 2948
3017 3014 3011 3008 3005 3002 2999 2995 2992 2989 2985 2983 2980 2978 2976 2974 2972 2970 2969 2967 2965 2964 2961 2959 2957 2955 2953 2950 2946 2944 2941 2939 2938 2936 2934 2931 2928 2925 2922 2919 2916 2913 2910 2906 2902 2898 2895 2893 2891 2887 2884 2884 2885 2886 2886 2885 2885 2885 2884 2884 2884 2884 2884 2884 2884 2885 2886 2888 2889 2890 2890 2890 2891 2893 2894 2895 2897 2899 2900 2902 2903 2905 2906 2908 2910 2912 2914 2915 2917 2919 2920 2921 2923 2924 2925 2927 2929 2931 2934 2936 2939 2942 2945
3015 3013 3010 3007 3004 3000 2997 2994 2990 2987 2984 2981 2979 2976 2975 2973 2971 2970 2968 2966 2964 2962 2960 2958 2956 2954 2952 2949 2947 2944 2942 2940 2937 2935 2934 2932 2929 2925 2922 2919 2916 2913 2910 2908 2904 2901 2897 2895 2893 2890 2886 2883 2884 2886 2887 2886 2885 2885 2884 2884 2884 2884 2884 2885 2885 2886 2886 2887 2888 2888 2888 2889 2890 2890 2891 2893 2895 2896 2898 2899 2901 2902 2904 2906 2908 2910 2911 2913 2915 2916 2917 2919 2920 2921 2922 2924 2926 2929 2931 2934 2937 2939 2942
3014 3011 3008 3005 3002 2999 2995 2992 2989 2985 2983 2980 2977 2975 2973 2972 2970 2969 2967 2965 2964 2961 2960 2957 2955 2953 2951 2948 2946 2944 2942 2940 2937 2935 2932 2930 2928 2925 2922 2919 2916 2914 2911 2908 2906 2904 2901 2898 2895 2892 2889 2886 2885 2885 2887 2886 2885 2884 2884 2884 2883 2884 2884 2884 2885 2885 2885 2885 2886 2886 2887 2887 2888 2889 2890 2891 2893 2895 2896 2898 2899 2901 2903 2904 2906 2907 2909 2910 2912 2913 2915 2916 2917 2919 2920 2922 2924 2927 2929 2931 2934 2935 2938
3012 3009 3006 3003 3000 2997 2994 2990 2987 2984 2981 2979 2976 2974 2972 2971 2969 2967 2966 2964 2963 2961 2959 2957 2955 2953 2950 2948 2946 2944 2941 2939 2937 2935 2932 2929 2927 2925 2922 2919 2917 2914 2911 2909 2906 2905 2903 2901 2898 2895 2893 2890 2888 2886 2885 2886 2886 2885 2884 2883 2883 2883 2883 2883 2883 2883 2884 2884 2885 2885 2886 2886 2887 2888 2889 2890 2892 2893 2895 2896 2898 2900 2901 2902 2904 2905 2906 2908 2909 2910 2912 2913 2915 2916 2918 2920 2922 2925 2926 2928 2930 2932 2934
3010 3007 3005 3001 2998 2995 2992 2989 2986 2983 2980 2977 2975 2973 2971 2970 2968 2966 2965 2963 2961 2960 2958 2956 2954 2952 2950 2948 2945 2944 2941 2939 2936 2934 2931 2929 2926 2924 2922 2920 2917 2915 2912 2910 2907 2905 2904 2902 2900 2898 2895 2894 2891 2888 2886 2885 2885 2885 2884 2883 2883 2883 2883 2882 2882 2882 2882 2883 2883 2884 2885 2885 2886 2887 2889 2890 2891 2892 2894 2895 2897 2898 2899 2900 2901 2903 2904 2905 2906 2908 2909 2910 2912 2914 2915 2918 2920 2922 2923 2924 2926 2928 2930